Theta_e
350 351 351 351 352 352 352 351 351 352 351 352 352 352 352 350 350 353 354 355 355 355 353 351 352 355 356 356 355 355 355 355 355 355 356 355 354 354 354 355 356 357
350 351 351 351 352 352 352 351 351 351 350 351 352 353 353 351 350 353 354 354 355 355 355 353 351 354 356 356 356 355 355 356 356 355 355 356 355 355 355 355 356 357
351 351 351 352 352 352 351 351 351 352 352 352 352 352 354 352 351 353 354 354 355 355 356 355 353 353 356 356 355 355 355 355 356 354 355 356 357 356 356 356 356 356
351 351 351 352 352 351 351 351 352 353 353 352 352 352 353 352 352 353 353 353 354 355 355 355 354 353 355 356 355 355 355 355 356 355 354 355 356 356 356 355 356 356
352 352 352 352 353 353 352 351 352 353 353 352 351 351 352 353 353 353 353 353 353 354 355 354 354 354 355 356 356 356 355 355 356 356 355 354 354 354 355 355 356 356
352 352 352 352 352 354 354 353 353 353 353 352 351 351 352 352 353 353 353 353 354 355 355 354 354 354 355 356 356 356 357 356 357 357 356 355 354 353 353 355 356 356
352 352 352 352 352 355 355 354 354 354 353 352 351 351 352 352 353 354 353 354 355 355 355 355 355 355 355 355 356 356 357 358 357 357 357 356 355 354 352 353 355 355
350 351 352 351 352 354 355 355 354 353 352 352 351 351 352 353 353 354 354 354 354 354 354 354 355 356 356 355 355 356 357 358 358 357 356 355 355 354 352 352 354 354
350 351 352 352 352 353 355 354 353 352 352 351 351 352 352 352 352 353 353 354 354 353 353 353 354 355 356 356 355 355 356 356 357 357 357 356 355 354 353 353 353 353
351 351 352 352 351 352 354 354 353 352 351 351 351 352 352 352 353 353 353 353 354 354 354 354 354 354 355 355 355 355 356 356 356 356 356 356 356 355 354 354 353 352
352 352 352 352 351 351 352 354 353 352 352 352 352 352 353 353 354 354 353 353 353 354 354 353 354 354 354 354 354 354 355 355 356 356 355 355 355 355 354 353 353 352
352 352 352 352 352 351 351 352 353 353 352 352 352 353 354 354 354 354 353 353 353 353 352 352 352 352 353 353 353 354 354 355 355 355 354 354 353 353 353 354 353 352
352 353 353 353 353 352 351 351 352 353 353 353 352 353 353 354 353 354 353 353 353 352 351 351 350 350 351 351 351 352 353 354 354 354 354 354 353 352 353 353 353 353
353 354 354 354 354 354 353 353 352 352 351 351 352 352 353 353 352 353 353 353 353 352 351 351 350 350 350 350 350 350 351 352 352 353 353 353 353 352 353 353 353 352
354 354 354 354 354 354 354 354 353 353 352 352 352 352 353 354 353 353 354 353 353 352 352 351 350 350 349 349 349 349 349 350 350 351 351 351 351 351 351 352 352 352
350 352 353 354 354 353 353 353 353 354 354 353 353 354 354 354 354 353 353 352 351 351 351 350 350 349 349 349 349 349 349 349 349 349 350 350 350 349 349 349 350 350
347 350 353 353 353 353 353 353 353 352 353 353 354 353 354 353 352 352 351 351 350 349 349 349 349 349 349 348 349 349 348 348 348 348 349 349 349 349 349 348 348 349
346 347 348 349 350 351 351 351 351 351 351 351 352 353 352 351 351 350 350 349 348 348 347 347 347 347 348 347 348 348 349 348 348 348 348 348 348 348 348 348 348 348
348 347 347 348 349 350 350 350 349 349 349 348 349 351 352 352 352 351 351 350 349 348 347 347 347 346 346 346 347 348 349 349 348 347 347 347 347 347 347 348 348 348
346 347 347 348 349 350 351 351 350 350 349 348 349 350 350 351 352 351 352 351 351 350 349 349 348 347 348 348 348 349 350 350 349 348 347 347 347 346 347 347 348 348
340 341 341 342 344 346 347 348 348 349 349 349 351 351 351 352 352 352 352 351 351 351 350 350 349 349 350 350 350 351 351 351 349 348 347 347 346 346 347 347 348 349
336 337 337 337 338 339 340 342 343 344 345 347 349 351 352 353 353 353 353 352 352 352 352 351 351 351 351 351 352 353 353 352 351 349 348 348 347 347 348 348 349 349
332 333 331 331 333 334 335 337 338 340 342 344 345 347 350 353 355 354 354 354 354 353 353 353 353 353 353 353 353 353 353 353 352 351 351 350 350 350 350 351 351 351
327 326 325 326 328 329 330 331 332 334 337 340 342 344 345 348 352 353 353 354 354 355 355 354 354 354 354 354 354 353 353 352 352 352 352 352 352 352 352 352 352 352
323 322 322 323 325 326 328 329 328 329 331 334 338 342 343 346 348 349 350 351 352 352 353 354 354 355 354 354 353 353 353 353 353 353 353 353 353 353 353 352 352 352
322 321 320 323 327 328 328 329 329 329 330 330 332 335 338 341 344 346 349 350 349 348 349 351 351 352 353 353 353 352 352 352 352 352 352 352 352 352 352 352 353 352
Wind_Speed
22 20 19 19 18 19 19 18 17 16 15 14 14 13 13 13 12 13 12 10 8 7 7 7 8 8 7 6 5 5 5 5 5 5 4 4 4 4 4 3 3 4
23 21 20 19 18 19 19 18 16 14 14 13 13 12 11 11 11 12 12 10 9 8 7 7 9 9 8 7 7 6 6 7 6 6 5 4 4 4 4 3 3 4
24 21 20 19 18 19 19 18 16 14 13 13 14 13 12 11 11 11 11 11 10 9 8 8 9 10 10 8 8 8 8 7 7 6 6 5 5 5 5 4 4 4
24 22 21 19 17 17 18 17 16 15 13 14 14 13 12 12 11 11 11 11 10 10 9 9 10 10 10 9 9 9 9 8 7 7 6 6 6 6 6 6 6 6
24 23 22 20 18 18 18 17 17 16 14 14 13 13 13 13 12 11 11 11 10 10 10 10 10 11 11 10 10 10 10 9 9 8 8 8 8 8 7 7 7 7
25 24 23 21 20 19 19 18 17 16 16 14 13 13 13 13 13 12 12 11 10 10 10 11 12 11 11 11 11 11 12 11 10 10 10 10 9 10 9 9 9 9
26 25 24 23 21 20 19 18 17 16 16 15 14 14 14 14 14 13 13 12 12 12 12 12 13 13 13 13 13 13 13 12 12 11 12 12 11 11 10 10 11 11
28 27 25 24 23 22 20 19 17 16 16 15 15 15 15 14 14 14 14 13 13 14 14 14 14 14 14 15 14 14 14 14 13 13 13 13 13 12 12 11 12 12
28 27 26 25 24 24 22 20 19 17 17 17 16 15 15 15 15 15 15 15 14 14 14 14 14 13 14 14 15 15 14 14 14 14 14 14 14 14 13 12 12 13
28 27 27 26 26 26 25 23 20 19 18 18 17 17 16 15 15 15 16 16 15 14 13 13 13 13 13 14 15 15 15 15 14 15 16 16 16 15 14 13 13 14
27 27 27 27 26 27 27 26 23 21 21 20 19 18 17 16 15 15 16 17 17 16 15 14 13 13 14 14 15 16 16 16 16 16 17 17 17 17 16 15 14 14
27 27 27 27 26 26 27 27 26 24 22 22 21 20 19 18 17 16 17 17 17 17 17 17 16 15 15 15 16 17 17 18 18 18 18 18 18 18 17 16 16 16
27 28 27 26 25 25 25 26 26 25 24 23 22 21 21 20 19 19 19 18 18 19 19 19 18 18 17 17 17 17 18 19 19 19 19 19 18 18 18 18 18 18
25 25 24 24 23 23 23 24 25 25 25 24 23 22 22 21 20 19 19 18 19 19 20 20 20 20 20 19 18 18 19 20 21 21 21 20 20 19 19 19 20 20
17 17 17 18 18 19 20 21 23 24 24 24 23 24 23 22 20 19 18 18 18 18 19 20 21 21 21 21 20 20 20 21 22 23 23 23 22 22 21 21 21 21
8 12 16 17 17 16 16 16 17 20 22 24 24 23 23 22 21 20 19 18 17 17 18 19 20 21 21 21 20 20 21 21 22 23 24 24 24 24 24 24 24 24
7 15 20 19 18 17 17 17 16 14 17 22 23 23 22 22 21 20 20 19 18 18 17 18 19 20 20 20 19 19 20 21 22 23 24 24 25 25 26 26 26 26
11 17 19 17 16 16 17 18 19 16 15 18 21 22 22 21 21 21 21 20 19 19 19 19 20 20 19 19 19 18 19 20 22 23 24 25 25 25 25 25 26 26
7 11 12 11 11 11 12 13 15 17 17 18 20 21 21 21 21 21 21 21 20 21 21 21 22 21 20 20 19 18 18 19 21 22 23 24 25 25 26 25 25 25
11 8 6 4 2 2 4 6 8 12 16 18 20 20 20 20 20 20 20 19 19 19 20 20 20 20 19 19 18 18 17 18 20 21 22 23 24 25 26 25 25 25
17 15 14 12 10 9 7 4 2 2 6 10 14 16 17 17 17 17 17 17 16 17 17 18 18 17 16 15 15 15 16 17 18 20 21 22 23 24 25 25 25 25
18 17 16 14 14 13 11 9 7 5 3 2 6 10 12 13 13 12 12 12 12 13 14 15 14 14 13 13 12 13 13 14 15 16 17 18 19 20 20 21 21 22
16 15 15 13 13 14 12 9 6 4 3 2 3 5 8 8 7 8 7 8 8 9 11 11 11 11 12 12 11 11 11 11 12 12 13 13 13 13 13 14 14 15
16 16 17 15 13 13 12 9 6 4 2 2 3 4 6 5 3 2 2 3 4 5 7 8 9 9 10 10 10 10 9 9 10 10 11 11 11 10 10 10 11 11
18 17 17 17 15 13 12 11 8 6 4 4 4 4 5 5 5 3 1 0 1 3 4 5 5 5 5 6 7 8 8 8 9 10 11 11 12 11 11 11 11 11
19 17 16 16 16 16 15 13 9 6 4 3 6 7 7 7 5 3 2 2 2 2 2 2 2 2 2 2 3 5 6 7 7 8 9 9 9 10 10 10 9 9
Wind_Direction
215 220 225 228 230 231 230 229 229 227 228 227 224 224 227 227 221 216 217 221 225 229 231 231 229 230 233 236 247 258 263 266 267 270 281 285 277 275 270 270 301 328
216 220 227 233 236 233 231 232 232 232 231 231 230 231 235 234 226 221 224 230 235 237 237 236 232 231 232 236 246 253 256 261 266 265 266 271 270 264 261 264 279 306
216 220 225 232 235 231 229 230 231 233 237 239 239 240 240 237 230 227 231 239 244 245 244 243 238 233 231 238 249 255 256 261 265 263 257 259 263 260 256 259 268 281
214 219 223 229 232 228 226 226 229 233 240 244 245 244 241 236 233 233 237 243 247 250 250 247 243 237 236 243 252 258 259 261 264 261 256 256 260 262 260 260 263 266
215 218 222 226 228 226 224 226 230 233 239 245 245 244 241 235 236 240 241 243 249 254 255 250 245 241 243 249 257 262 263 263 264 263 260 261 262 264 264 265 265 266
217 219 221 224 227 227 226 228 232 234 237 242 241 240 238 235 237 242 244 247 254 260 261 256 250 247 249 254 259 262 264 266 265 263 264 265 267 268 266 266 268 271
219 221 222 224 226 227 228 231 233 235 237 239 238 236 235 235 237 241 245 251 258 263 265 265 262 258 257 259 262 262 263 266 266 264 264 265 267 269 266 264 266 270
220 222 222 224 225 226 228 231 234 237 236 236 236 234 234 237 240 242 247 252 258 263 265 268 269 266 262 260 262 263 264 266 268 269 267 266 269 270 268 265 266 269
221 222 224 224 224 224 226 228 231 235 236 235 236 236 237 242 246 246 247 250 256 260 261 264 266 264 260 257 258 262 266 268 271 274 273 272 272 273 274 272 270 270
222 223 224 225 225 224 225 227 229 230 233 236 237 238 241 246 250 248 246 246 251 255 256 259 261 258 258 258 258 260 265 269 272 274 275 276 276 277 278 278 277 275
224 225 226 227 227 227 226 227 228 229 232 235 238 240 242 246 249 250 248 246 249 253 254 256 257 257 257 259 260 261 263 267 270 272 273 274 276 279 280 281 280 280
225 226 228 229 231 231 229 229 229 230 232 235 237 240 241 244 247 250 251 250 252 255 257 258 258 257 258 260 262 261 261 264 267 270 273 273 275 277 279 281 281 281
226 227 230 232 234 235 233 232 232 234 236 239 241 243 243 245 248 250 252 254 257 259 260 262 261 259 259 260 262 262 262 263 265 268 271 273 275 276 277 280 281 282
226 228 229 232 236 238 238 237 236 238 241 243 245 247 248 249 248 249 253 258 261 261 262 263 264 262 262 262 262 263 262 264 266 268 270 273 275 276 277 278 279 280
223 223 225 227 232 238 241 243 243 243 245 246 248 248 248 250 249 249 253 259 261 261 261 263 263 264 265 266 265 265 265 266 268 269 271 273 275 277 278 278 278 278
206 210 219 221 222 228 236 242 246 248 248 248 249 249 248 247 248 248 249 254 258 260 260 260 262 264 267 268 268 268 269 270 270 271 272 273 275 277 278 280 281 281
235 227 226 222 221 225 230 232 235 246 255 252 246 245 245 242 242 244 246 248 251 253 254 256 259 263 266 269 270 269 269 269 271 273 274 274 274 276 278 281 283 284
251 245 240 234 231 233 235 234 229 233 255 262 251 242 239 238 238 240 242 244 245 246 249 252 257 261 265 268 269 268 267 267 268 271 273 274 275 276 277 279 281 283
203 229 235 236 239 241 245 247 237 232 243 259 261 252 241 236 238 240 241 243 244 247 250 253 257 261 263 266 269 270 268 265 264 265 268 270 273 274 275 277 278 281
120 138 150 163 174 206 240 257 256 246 242 245 253 254 245 238 237 238 241 243 245 247 251 254 257 260 263 265 268 271 271 267 263 262 262 265 268 270 273 274 276 278
87 85 85 85 88 93 94 82 48 291 253 242 243 244 241 238 235 234 238 241 244 246 248 252 255 259 263 267 269 271 272 269 266 264 262 262 264 267 270 273 275 276
84 83 82 81 80 81 81 77 67 55 35 297 265 250 241 234 226 223 227 231 236 241 244 249 255 258 261 264 267 271 273 273 272 269 267 266 267 270 272 274 275 276
81 80 75 73 72 69 68 69 65 62 54 358 310 281 265 250 226 210 209 212 218 227 235 241 245 248 250 251 253 257 262 267 271 271 272 273 274 277 277 277 279 279
71 67 60 58 61 59 56 53 48 47 35 345 311 292 293 294 272 208 204 223 224 228 233 237 240 242 243 242 240 240 243 250 257 261 264 268 271 274 276 277 278 279
68 66 58 57 61 64 61 54 40 25 9 336 306 284 270 265 258 234 189 183 296 281 267 254 250 252 249 244 241 243 244 247 253 256 259 264 269 271 271 272 275 281
67 64 58 59 67 72 70 65 54 37 24 323 279 263 239 232 240 228 174 124 75 36 9 348 333 350 341 286 259 260 262 261 266 271 273 276 279 279 278 279 280 283